Location: Grand Rapids
(42.9630°N, 85.6680°W)
Time: 02:45:48
(UTC-04:00)

A-11 Canister half - Pass Details

Date: 03 June 2024
Orbit: 1524 x 1684 km, 47.3° (Epoch: 21 June)

Event Time Altitude Azimuth Distance (km) Brightness Sun altitude
Rises 22:25:08 0° 276° (W) 4,677 12.4 -10.6°
Reaches altitude 10° 22:28:12 10° 279° (W) 3,702 11.9 -11.0°
Maximum altitude 22:37:31 68° 2° (N) 1,654 9.3 -12.1°
Drops below altitude 10° 22:47:07 10° 85° (E) 3,802 10.7 -13.3°
Sets 22:50:18 0° 88° (E) 4,809 11.2 -13.7°
